| time (UTC) | temp C | wind direction | speed KPH | gust KPH | rain 1hr cm | rain 24hr cm | rain mn cm | humidity % | barometer mb |
| 20260901201327 | 15 | 0 | 0.0 | 0.0 | 0.00 | 0.00 | 0.00 | 91 | 1021.6 |
| 20260901200328 | 15 | 0 | 0.0 | 0.0 | 0.00 | 0.00 | 0.00 | 91 | 1021.7 |
| 20260901195327 | 15 | 0 | 0.0 | 0.0 | 0.00 | 0.00 | 0.00 | 90 | 1021.7 |
| 20260901194344 | 15 | 0 | 0.0 | 0.0 | 0.00 | 0.00 | 0.00 | 89 | 1021.6 |
| 20260901191328 | 16 | 0 | 0.0 | 0.0 | 0.00 | 0.00 | 0.00 | 86 | 1021.4 |
| 20260901190331 | 16 | 0 | 0.0 | 0.0 | 0.00 | 0.00 | 0.00 | 85 | 1021.4 |
| 20260901184321 | 17 | 0 | 0.0 | 0.0 | 0.00 | 0.00 | 0.00 | 84 | 1021.3 |
| 20260901183321 | 17 | 0 | 0.0 | 0.0 | 0.00 | 0.00 | 0.00 | 82 | 1021.2 |
| 20260901182335 | 17 | 0 | 0.0 | 3.2 | 0.00 | 0.00 | 0.00 | 80 | 1021.1 |
| 20260901182227 | 18 | 0 | 0.0 | 3.2 | 0.00 | 0.00 | 0.00 | 80 | 1021.1 |
| 20260901181419 | 18 | 258 | 1.6 | 6.4 | 0.00 | 0.00 | 0.00 | 78 | 1021.0 |
| 20260901180418 | 18 | 258 | 3.2 | 6.4 | 0.00 | 0.00 | 0.00 | 76 | 1020.7 |
| 20260901175405 | 18 | 257 | 3.2 | 6.4 | 0.00 | 0.00 | 0.00 | 76 | 1020.7 |
| 20260901173412 | 19 | 259 | 3.2 | 9.7 | 0.00 | 0.00 | 0.00 | 74 | 1020.6 |
| 20260901172408 | 19 | 269 | 1.6 | 8.0 | 0.00 | 0.00 | 0.00 | 72 | 1020.7 |
| 20260901170411 | 20 | 252 | 4.8 | 12.9 | 0.00 | 0.00 | 0.00 | 71 | 1020.7 |
| 20260901165404 | 20 | 304 | 1.6 | 14.5 | 0.00 | 0.00 | 0.00 | 73 | 1020.8 |
| 20260901164410 | 20 | 244 | 1.6 | 9.7 | 0.00 | 0.00 | 0.00 | 75 | 1020.8 |
| 20260901163406 | 19 | 290 | 1.6 | 6.4 | 0.00 | 0.00 | 0.00 | 76 | 1020.8 |
| 20260901162406 | 19 | 290 | 1.6 | 11.3 | 0.00 | 0.00 | 0.00 | 77 | 1020.9 |
| 20260901161409 | 19 | 288 | 3.2 | 11.3 | 0.00 | 0.00 | 0.00 | 75 | 1020.8 |
| 20260901160404 | 19 | 294 | 3.2 | 9.7 | 0.00 | 0.10 | 0.00 | 76 | 1020.9 |
| 20260901155407 | 19 | 336 | 6.4 | 19.3 | 0.00 | 1.14 | 0.00 | 75 | 1020.8 |
| 20260901154408 | 20 | 292 | 9.7 | 17.7 | 0.00 | 1.17 | 0.00 | 74 | 1020.7 |
| 20260901152406 | 21 | 267 | 1.6 | 14.5 | 0.00 | 1.19 | 0.00 | 69 | 1020.5 |
| 20260901151407 | 21 | 273 | 3.2 | 11.3 | 0.00 | 1.19 | 0.00 | 70 | 1020.5 |
| 20260901145409 | 20 | 271 | 6.4 | 16.1 | 0.00 | 1.19 | 0.00 | 72 | 1020.4 |
| 20260901144407 | 20 | 317 | 8.0 | 17.7 | 0.00 | 1.19 | 0.00 | 74 | 1020.3 |
| 20260901143411 | 20 | 311 | 8.0 | 17.7 | 0.00 | 1.19 | 0.00 | 74 | 1020.4 |
| 20260901142419 | 21 | 281 | 9.7 | 17.7 | 0.00 | 1.19 | 0.00 | 70 | 1020.5 |
| 20260901141412 | 21 | 274 | 4.8 | 16.1 | 0.00 | 1.22 | 0.00 | 64 | 1020.5 |
| 20260901140422 | 21 | 264 | 6.4 | 14.5 | 0.00 | 1.22 | 0.00 | 65 | 1020.3 |
| 20260901135408 | 21 | 239 | 3.2 | 12.9 | 0.00 | 1.22 | 0.00 | 64 | 1020.3 |
| 20260901133411 | 22 | 190 | 0.0 | 12.9 | 0.00 | 1.22 | 0.00 | 63 | 1020.4 |
| 20260901132407 | 22 | 161 | 11.3 | 19.3 | 0.00 | 1.22 | 0.00 | 64 | 1020.4 |
| 20260901131405 | 22 | 256 | 3.2 | 16.1 | 0.00 | 1.22 | 0.00 | 63 | 1020.4 |
| 20260901130403 | 23 | 248 | 3.2 | 14.5 | 0.00 | 1.22 | 0.00 | 65 | 1020.4 |
| 20260901125402 | 22 | 254 | 9.7 | 14.5 | 0.00 | 1.22 | 0.00 | 64 | 1020.6 |
| 20260901124407 | 22 | 163 | 0.0 | 11.3 | 0.00 | 1.22 | 0.00 | 67 | 1020.5 |
| 20260901122357 | 21 | 209 | 4.8 | 11.3 | 0.00 | 1.22 | 0.00 | 67 | 1020.6 |
| 20260901121401 | 22 | 255 | 4.8 | 14.5 | 0.00 | 1.22 | 0.00 | 65 | 1020.8 |
| 20260901120358 | 22 | 263 | 4.8 | 14.5 | 0.00 | 1.22 | 0.00 | 68 | 1020.7 |
| 20260901115358 | 21 | 186 | 1.6 | 11.3 | 0.00 | 1.22 | 0.00 | 72 | 1020.6 |
| 20260901114400 | 21 | 288 | 1.6 | 8.0 | 0.00 | 1.22 | 0.00 | 73 | 1020.8 |
| 20260901113409 | 20 | 292 | 3.2 | 11.3 | 0.00 | 1.22 | 0.00 | 75 | 1020.9 |
| 20260901112359 | 20 | 277 | 1.6 | 11.3 | 0.00 | 1.22 | 0.00 | 77 | 1021.1 |
| 20260901111354 | 20 | 265 | 6.4 | 12.9 | 0.00 | 1.22 | 0.00 | 75 | 1021.1 |
| 20260901105352 | 19 | 205 | 4.8 | 16.1 | 0.00 | 1.22 | 0.00 | 78 | 1021.0 |
| 20260901104351 | 20 | 260 | 9.7 | 17.7 | 0.00 | 1.22 | 0.00 | 75 | 1021.1 |
| 20260901102349 | 20 | 147 | 3.2 | 8.0 | 0.00 | 1.22 | 0.00 | 76 | 1021.0 |
| 20260901100342 | 20 | 121 | 1.6 | 16.1 | 0.00 | 1.22 | 0.00 | 78 | 1021.1 |
| 20260901095339 | 20 | 250 | 1.6 | 12.9 | 0.00 | 1.22 | 0.00 | 79 | 1021.0 |
| 20260901094343 | 20 | 161 | 1.6 | 11.3 | 0.00 | 1.22 | 0.00 | 80 | 1021.0 |
| 20260901093343 | 18 | 247 | 1.6 | 8.0 | 0.00 | 1.22 | 0.00 | 83 | 1021.1 |
| 20260901092340 | 18 | 263 | 6.4 | 16.1 | 0.00 | 1.22 | 0.00 | 82 | 1021.2 |
| 20260901091341 | 18 | 300 | 0.0 | 9.7 | 0.00 | 1.22 | 0.00 | 86 | 1021.3 |
| 20260901090337 | 17 | 275 | 1.6 | 9.7 | 0.00 | 1.22 | 0.00 | 87 | 1021.3 |
| 20260901085334 | 17 | 267 | 1.6 | 9.7 | 0.00 | 1.22 | 0.00 | 88 | 1021.3 |
| 20260901084333 | 17 | 267 | 3.2 | 6.4 | 0.00 | 1.22 | 0.00 | 88 | 1021.3 |
| 20260901082334 | 16 | 227 | 3.2 | 6.4 | 0.00 | 1.22 | 0.00 | 90 | 1021.4 |
| 20260901081331 | 16 | 223 | 1.6 | 6.4 | 0.00 | 1.22 | 0.00 | 90 | 1021.4 |
| 20260901080332 | 16 | 222 | 3.2 | 6.4 | 0.00 | 1.22 | 0.00 | 90 | 1021.4 |
| 20260901074330 | 16 | 217 | 3.2 | 8.0 | 0.00 | 1.22 | 0.00 | 91 | 1021.3 |
| 20260901073332 | 15 | 248 | 4.8 | 9.7 | 0.00 | 1.22 | 0.00 | 92 | 1021.2 |
| 20260901071330 | 15 | 153 | 0.0 | 4.8 | 0.00 | 1.22 | 0.00 | 93 | 1021.1 |
| 20260901070332 | 15 | 153 | 0.0 | 3.2 | 0.00 | 1.22 | 0.00 | 93 | 1021.0 |
| 20260901064333 | 15 | 150 | 0.0 | 3.2 | 0.00 | 1.22 | 0.00 | 94 | 1020.9 |
| 20260901063331 | 15 | 150 | 0.0 | 6.4 | 0.00 | 1.22 | 0.00 | 94 | 1020.8 |
| 20260901062330 | 15 | 192 | 0.0 | 4.8 | 0.00 | 1.22 | 0.00 | 94 | 1020.8 |
| 20260901061330 | 15 | 196 | 0.0 | 6.4 | 0.00 | 1.22 | 0.00 | 94 | 1020.7 |
| 20260901060333 | 14 | 200 | 0.0 | 4.8 | 0.00 | 1.22 | 0.00 | 94 | 1020.6 |
| 20260901053331 | 14 | 154 | 3.2 | 8.0 | 0.00 | 1.22 | 0.00 | 94 | 1020.4 |
| 20260901052333 | 14 | 166 | 0.0 | 6.4 | 0.00 | 1.22 | 0.00 | 94 | 1020.3 |
| 20260901051331 | 14 | 166 | 1.6 | 6.4 | 0.00 | 1.22 | 0.00 | 93 | 1020.3 |
| 20260901045339 | 14 | 165 | 1.6 | 11.3 | 0.00 | 1.22 | 0.00 | 92 | 1020.1 |
| 20260901044330 | 14 | 184 | 1.6 | 6.4 | 0.00 | 1.22 | 0.00 | 92 | 1020.1 |
| 20260901043331 | 14 | 185 | 1.6 | 4.8 | 0.00 | 1.22 | 0.00 | 91 | 1019.9 |
| 20260901042330 | 13 | 184 | 0.0 | 0.0 | 0.00 | 1.22 | 0.00 | 91 | 1019.6 |
| 20260901040330 | 13 | 184 | 0.0 | 0.0 | 0.00 | 1.32 | 0.00 | 91 | 1019.4 |
| 20260901035330 | 13 | 184 | 0.0 | 0.0 | 0.00 | 1.32 | 0.00 | 91 | 1019.3 |
| 20260901034331 | 13 | 184 | 0.0 | 0.0 | 0.00 | 1.32 | 0.00 | 91 | 1019.3 |
| 20260901033331 | 13 | 184 | 0.0 | 0.0 | 0.00 | 1.35 | 0.00 | 91 | 1019.3 |
| 20260901032332 | 13 | 184 | 0.0 | 0.0 | 0.00 | 1.37 | 0.00 | 91 | 1019.4 |
| 20260901030332 | 13 | 184 | 0.0 | 0.0 | 0.00 | 1.45 | 0.00 | 91 | 1019.3 |
| 20260901025335 | 13 | 184 | 0.0 | 0.0 | 0.00 | 1.45 | 0.00 | 92 | 1019.2 |
| 20260901024330 | 13 | 184 | 0.0 | 0.0 | 0.00 | 1.45 | 0.00 | 92 | 1019.1 |
| 20260901023333 | 12 | 184 | 0.0 | 0.0 | 0.00 | 1.45 | 0.00 | 92 | 1019.2 |
| 20260901022330 | 12 | 184 | 0.0 | 0.0 | 0.00 | 1.47 | 0.00 | 92 | 1019.2 |
| 20260901021330 | 12 | 184 | 0.0 | 0.0 | 0.00 | 1.47 | 0.00 | 92 | 1019.1 |
| 20260901020334 | 12 | 184 | 0.0 | 0.0 | 0.00 | 1.47 | 0.00 | 92 | 1019.2 |
| 20260901015331 | 12 | 184 | 0.0 | 0.0 | 0.00 | 1.50 | 0.00 | 92 | 1019.2 |
| 20260901011331 | 12 | 184 | 0.0 | 0.0 | 0.00 | 1.55 | 0.00 | 92 | 1019.0 |
| 20260901010332 | 12 | 184 | 0.0 | 0.0 | 0.00 | 1.55 | 0.00 | 92 | 1019.0 |
| 20260901004324 | 12 | 184 | 0.0 | 0.0 | 0.00 | 1.60 | 0.00 | 93 | 1019.0 |
| 20260901002324 | 12 | 186 | 0.0 | 4.8 | 0.00 | 1.63 | 0.00 | 93 | 1018.9 |
| 20260901001320 | 12 | 186 | 0.0 | 4.8 | 0.00 | 1.63 | 0.00 | 93 | 1018.9 |
| 20260901000322 | 12 | 221 | 0.0 | 0.0 | 0.00 | 1.63 | 0.00 | 93 | 1018.8 |
| 20260831235322 | 12 | 221 | 0.0 | 3.2 | 0.00 | 1.63 | 0.00 | 94 | 1018.9 |
| 20260831234323 | 12 | 225 | 0.0 | 0.0 | 0.00 | 1.63 | 0.00 | 94 | 1018.9 |
| 20260831233318 | 12 | 225 | 0.0 | 3.2 | 0.00 | 1.63 | 0.00 | 94 | 1018.9 |
| 20260831232308 | 12 | 236 | 0.0 | 0.0 | 0.00 | 1.63 | 0.00 | 94 | 1018.9 |
| 20260831231309 | 13 | 236 | 0.0 | 0.0 | 0.00 | 1.63 | 0.00 | 94 | 1018.8 |
| 20260831230306 | 13 | 236 | 0.0 | 0.0 | 0.00 | 1.63 | 0.00 | 93 | 1018.9 |
| 20260831225309 | 13 | 236 | 0.0 | 0.0 | 0.00 | 1.63 | 0.00 | 93 | 1018.8 |
| 20260831224306 | 14 | 236 | 0.0 | 0.0 | 0.00 | 1.63 | 0.00 | 93 | 1018.7 |
| 20260831223305 | 14 | 236 | 0.0 | 6.4 | 0.00 | 1.63 | 0.00 | 93 | 1018.7 |
| 20260831222306 | 14 | 236 | 0.0 | 0.0 | 0.00 | 1.63 | 0.00 | 92 | 1018.6 |
| 20260831220309 | 15 | 236 | 0.0 | 4.8 | 0.00 | 1.63 | 0.00 | 92 | 1018.6 |
| 20260831215307 | 15 | 236 | 0.0 | 6.4 | 0.00 | 1.63 | 1.63 | 92 | 1018.6 |
| 20260831212306 | 15 | 238 | 0.0 | 0.0 | 0.00 | 1.63 | 1.63 | 92 | 1018.5 |
| 20260831210312 | 15 | 238 | 0.0 | 6.4 | 0.00 | 1.63 | 1.63 | 92 | 1018.4 |
| 20260831204304 | 15 | 238 | 0.0 | 0.0 | 0.00 | 1.63 | 1.63 | 91 | 1018.0 |
| 20260831203305 | 15 | 238 | 0.0 | 4.8 | 0.00 | 1.63 | 1.63 | 91 | 1017.9 |